Tracking 17828 objects as of 30-July-2016
HD Live streaming from Space Station
objects crossing your sky now

SINAH 1

Track SINAH 1 now!
10-day predictions
SINAH 1 is classified as:


NORAD ID: 28893
Int'l Code: 2005-043D
Perigee: 684.0 km
Apogee: 707.7 km
Inclination: 97.8 °
Period: 98.5 minutes
Semi major axis: 7066 km
RCS: 0.8773 m2 (medium)
Launch date: October 27, 2005
Source: Iran (IRAN)
Launch site: PLESETSK MISSILE AND SPACE COMPLEX (PKMTR)

Sinah 1 is an Iranian microsatellite (170 kg). Iranian press reports that it is intended for "telecommunications and research".
Your satellite tracking list
Your tracking list is empty





NASA's NSSDC Master Catalog

Two Line Element Set (TLE):
1 28893U 05043D   16210.57544016  .00000031  00000-0  15138-4 0  9990
2 28893  97.8410  18.8756 0016758  93.7159 266.5960 14.61382658573189
Source of the keplerian elements: AFSPC

N2YO: 1151